Previsão horária em Jumashuy

Hoje, 22 Junho, Terça-feira

Tempo Temperatura Precipitação Vento Pressão Humidade
00:00 +29°C° 0 mm 7 m/s 723 mmHg 17%
01:00 +28°C° 0 mm 6 m/s 723 mmHg 17%
02:00 +27°C° 0 mm 5 m/s 723 mmHg 18%
03:00 +27°C° 0 mm 4 m/s 723 mmHg 20%
04:00 +26°C° 0 mm 4 m/s 723 mmHg 21%
05:00 +25°C° 0 mm 3 m/s 724 mmHg 23%
06:00 +26°C° 0 mm 3 m/s 724 mmHg 21%
07:00 +28°C° 0 mm 3 m/s 725 mmHg 20%
08:00 +29°C° 0 mm 3 m/s 725 mmHg 18%
09:00 +31°C° 0 mm 3 m/s 725 mmHg 16%
10:00 +33°C° 0 mm 3 m/s 724 mmHg 15%
11:00 +35°C° 0 mm 3 m/s 724 mmHg 14%
12:00 +36°C° 0 mm 3 m/s 724 mmHg 13%
13:00 +37°C° 0 mm 4 m/s 723 mmHg 12%
14:00 +38°C° 0 mm 4 m/s 723 mmHg 11%
15:00 +40°C° 0 mm 5 m/s 722 mmHg 11%
16:00 +40°C° 0 mm 6 m/s 722 mmHg 11%
17:00 +40°C° 0 mm 8 m/s 721 mmHg 11%
18:00 +39°C° 0 mm 8 m/s 721 mmHg 13%
19:00 +37°C° 0 mm 8 m/s 721 mmHg 15%
20:00 +35°C° 0 mm 8 m/s 721 mmHg 16%
21:00 +34°C° 0 mm 7 m/s 721 mmHg 18%
22:00 +33°C° 0 mm 6 m/s 722 mmHg 19%
23:00 +32°C° 0 mm 6 m/s 722 mmHg 20%

Amanhã, 23 Junho, Quarta-feira

Tempo Temperatura Precipitação Vento Pressão Humidade
00:00 +30°C° 0 mm 6 m/s 722 mmHg 21%
01:00 +30°C° 0 mm 6 m/s 722 mmHg 21%
02:00 +29°C° 0 mm 6 m/s 722 mmHg 21%
03:00 +28°C° 0 mm 5 m/s 722 mmHg 22%
04:00 +27°C° 0 mm 4 m/s 722 mmHg 23%
05:00 +27°C° 0 mm 4 m/s 722 mmHg 24%
06:00 +28°C° 0 mm 4 m/s 723 mmHg 22%
07:00 +29°C° 0 mm 5 m/s 723 mmHg 21%
08:00 +30°C° 0 mm 5 m/s 724 mmHg 19%
09:00 +33°C° 0 mm 5 m/s 724 mmHg 17%
10:00 +34°C° 0 mm 4 m/s 724 mmHg 16%
11:00 +36°C° 0 mm 4 m/s 724 mmHg 15%
12:00 +37°C° 0 mm 4 m/s 723 mmHg 13%
13:00 +38°C° 0 mm 4 m/s 723 mmHg 11%
14:00 +40°C° 0 mm 5 m/s 723 mmHg 10%
15:00 +40°C° 0 mm 5 m/s 722 mmHg 10%
16:00 +40°C° 0 mm 5 m/s 722 mmHg 10%
17:00 +40°C° 0 mm 5 m/s 722 mmHg 9%
18:00 +37°C° 0 mm 5 m/s 722 mmHg 11%
19:00 +35°C° 0 mm 5 m/s 722 mmHg 13%
20:00 +34°C° 0 mm 5 m/s 722 mmHg 14%
21:00 +33°C° 0 mm 5 m/s 722 mmHg 15%
22:00 +32°C° 0 mm 4 m/s 722 mmHg 16%
23:00 +30°C° 0 mm 4 m/s 722 mmHg 18%

Depois de amanhã, 24 Junho, Quinta-feira

Tempo Temperatura Precipitação Vento Pressão Humidade
00:00 +29°C° 0 mm 3 m/s 722 mmHg 19%
01:00 +28°C° 0 mm 2 m/s 721 mmHg 20%
02:00 +27°C° 0 mm 2 m/s 721 mmHg 20%
03:00 +27°C° 0 mm 2 m/s 721 mmHg 22%
04:00 +26°C° 0 mm 2 m/s 721 mmHg 23%
05:00 +25°C° 0 mm 2 m/s 721 mmHg 25%
06:00 +27°C° 0 mm 2 m/s 722 mmHg 22%
07:00 +29°C° 0 mm 3 m/s 722 mmHg 20%
08:00 +32°C° 0 mm 4 m/s 722 mmHg 17%
09:00 +33°C° 0 mm 4 m/s 722 mmHg 15%
10:00 +35°C° 0 mm 3 m/s 722 mmHg 14%
11:00 +37°C° 0 mm 3 m/s 722 mmHg 12%
12:00 +38°C° 0 mm 4 m/s 721 mmHg 11%
13:00 +40°C° 0 mm 5 m/s 721 mmHg 11%
14:00 +41°C° 0 mm 6 m/s 720 mmHg 10%
15:00 +41°C° 0 mm 7 m/s 720 mmHg 10%
16:00 +41°C° 0 mm 8 m/s 720 mmHg 10%
17:00 +42°C° 0 mm 10 m/s 720 mmHg 10%
18:00 +39°C° 0 mm 10 m/s 720 mmHg 12%
19:00 +38°C° 0 mm 10 m/s 720 mmHg 14%
20:00 +36°C° 0 mm 10 m/s 720 mmHg 16%
21:00 +34°C° 0 mm 9 m/s 720 mmHg 17%
22:00 +34°C° 0 mm 8 m/s 720 mmHg 19%
23:00 +33°C° 0 mm 8 m/s 720 mmHg 21%

25 Junho, Sexta-feira

Tempo Temperatura Precipitação Vento Pressão Humidade
00:00 +32°C° 0.1 mm 7 m/s 720 mmHg 23%
01:00 +30°C° 0.1 mm 6 m/s 720 mmHg 25%
02:00 +29°C° 0.1 mm 6 m/s 719 mmHg 26%
03:00 +29°C° 0.1 mm 5 m/s 720 mmHg 26%
04:00 +28°C° 0.1 mm 5 m/s 720 mmHg 26%
05:00 +28°C° 0.1 mm 4 m/s 720 mmHg 26%
06:00 +29°C° 0 mm 4 m/s 720 mmHg 24%
07:00 +32°C° 0 mm 5 m/s 721 mmHg 22%
08:00 +33°C° 0 mm 5 m/s 721 mmHg 20%
09:00 +35°C° 0 mm 6 m/s 721 mmHg 18%
10:00 +36°C° 0 mm 6 m/s 721 mmHg 17%
11:00 +39°C° 0 mm 7 m/s 721 mmHg 16%
12:00 +40°C° 0 mm 8 m/s 720 mmHg 15%
13:00 +42°C° 0 mm 9 m/s 719 mmHg 14%
14:00 +42°C° 0 mm 9 m/s 719 mmHg 13%
15:00 +42°C° 0 mm 10 m/s 719 mmHg 14%
16:00 +42°C° 0 mm 10 m/s 718 mmHg 14%
17:00 +42°C° 0 mm 11 m/s 718 mmHg 15%
18:00 +39°C° 0 mm 11 m/s 718 mmHg 15%
19:00 +38°C° 0 mm 11 m/s 718 mmHg 16%
20:00 +36°C° 0 mm 11 m/s 718 mmHg 17%
21:00 +34°C° 0 mm 11 m/s 718 mmHg 18%
22:00 +33°C° 0 mm 11 m/s 719 mmHg 18%
23:00 +32°C° 0 mm 10 m/s 719 mmHg 19%

26 Junho, Sábado

Tempo Temperatura Precipitação Vento Pressão Humidade
00:00 +31°C° 0 mm 10 m/s 719 mmHg 18%
01:00 +29°C° 0 mm 10 m/s 719 mmHg 18%
02:00 +28°C° 0 mm 9 m/s 719 mmHg 18%
03:00 +28°C° 0 mm 9 m/s 719 mmHg 19%
04:00 +27°C° 0 mm 8 m/s 720 mmHg 21%
05:00 +26°C° 0 mm 7 m/s 720 mmHg 22%
06:00 +27°C° 0 mm 7 m/s 721 mmHg 21%
07:00 +28°C° 0 mm 7 m/s 721 mmHg 19%
08:00 +29°C° 0 mm 6 m/s 722 mmHg 17%
09:00 +32°C° 0 mm 6 m/s 722 mmHg 16%
10:00 +33°C° 0 mm 5 m/s 722 mmHg 15%
11:00 +35°C° 0 mm 4 m/s 721 mmHg 14%
12:00 +36°C° 0 mm 4 m/s 721 mmHg 12%
13:00 +37°C° 0 mm 5 m/s 721 mmHg 11%
14:00 +39°C° 0 mm 5 m/s 720 mmHg 9%
15:00 +39°C° 0 mm 5 m/s 720 mmHg 9%
16:00 +39°C° 0 mm 5 m/s 720 mmHg 8%
17:00 +39°C° 0 mm 5 m/s 720 mmHg 7%
18:00 +36°C° 0 mm 5 m/s 720 mmHg 9%
19:00 +34°C° 0 mm 4 m/s 720 mmHg 11%
20:00 +31°C° 0 mm 3 m/s 720 mmHg 12%
21:00 +30°C° 0 mm 3 m/s 720 mmHg 13%
22:00 +29°C° 0 mm 3 m/s 720 mmHg 14%
23:00 +29°C° 0 mm 2 m/s 720 mmHg 14%

27 Junho, Domingo

Tempo Temperatura Precipitação Vento Pressão Humidade
00:00 +28°C° 0 mm 2 m/s 720 mmHg 15%
01:00 +27°C° 0 mm 2 m/s 720 mmHg 16%
02:00 +26°C° 0 mm 2 m/s 720 mmHg 16%
03:00 +26°C° 0 mm 1 m/s 720 mmHg 18%
04:00 +25°C° 0 mm 1 m/s 720 mmHg 19%
05:00 +24°C° 0 mm 1 m/s 721 mmHg 20%
06:00 +26°C° 0 mm 1 m/s 721 mmHg 18%
07:00 +29°C° 0 mm 2 m/s 721 mmHg 16%
08:00 +31°C° 0 mm 2 m/s 722 mmHg 13%
09:00 +34°C° 0 mm 2 m/s 722 mmHg 12%
10:00 +35°C° 0 mm 2 m/s 722 mmHg 11%
11:00 +37°C° 0 mm 2 m/s 721 mmHg 9%
12:00 +39°C° 0 mm 2 m/s 721 mmHg 9%
13:00 +40°C° 0 mm 3 m/s 721 mmHg 8%
14:00 +42°C° 0 mm 3 m/s 720 mmHg 7%
15:00 +43°C° 0 mm 3 m/s 720 mmHg 7%
16:00 +43°C° 0 mm 3 m/s 720 mmHg 7%
17:00 +43°C° 0 mm 3 m/s 719 mmHg 8%
18:00 +40°C° 0 mm 3 m/s 719 mmHg 9%
19:00 +38°C° 0 mm 3 m/s 719 mmHg 10%
20:00 +36°C° 0 mm 3 m/s 719 mmHg 12%
21:00 +35°C° 0 mm 3 m/s 719 mmHg 13%
22:00 +34°C° 0 mm 3 m/s 719 mmHg 14%
23:00 +33°C° 0 mm 3 m/s 719 mmHg 15%
Mostrar mais

Necessitamos do seu Consentimento

A Meteoprog e os seus Fornecedores de Serviços podem armazenar e aceder a dados pessoais como cookies, identificadores do dispositivo ou outras tecnologias semelhantes existentes no seu dispositivo e processar estes dados para personalizar conteúdos e anúncios, assim como funcionalidades nas redes sociais e análise de tráfego.

  • Armazenar e/ou aceder a informações no seu dispositivo

    Os cookies, identificadores do dispositivo ou outras informações podem ser armazenados ou acedidos no seu dispositivo, para os fins acima indicados.

  • Anúncios e conteúdos personalizados, medição de anúncios e conteúdos, dados sobre o público-alvo e desenvolvimento de produtos

    Os anúncios e os conteúdos podem ser personalizados com base num perfil. Podem ser adicionados dados adicionais para uma maior personalização dos anúncios e dos conteúdos. A eficácia dos anúncios e dos conteúdos pode ser medida. Podem ser obtidas informações sobre o público que visualizou os anúncios e os conteúdos. Estes dados podem ser usados para desenvolver ou melhorar sistemas, softwares ou a experiência do utilizador.

Ao clicar em "Eu concordo”, permitirá o uso de cookies, identificadores do dispositivo e web beacons mencionados ou outras tecnologias semelhantes. As configurações do navegador do seu dispositivo podem ser alteradas.

Para certos fins, podem ser invocados interesses legítimos ao invés de consentimento. Pode ler mais informação sobre este assunto na nossa Política de Privacidade e Cookies.